TimeMST,TemperatureF,Dew PointF,Humidity,Sea Level PressureIn,VisibilityMPH,Wind Direction,Wind SpeedMPH,Gust SpeedMPH,PrecipitationIn,Events,Conditions,WindDirDegrees,DateUTC
12:23 AM,-0.4,-2.2,92,30.17,-9999.0,Calm,Calm,-,N/A,,Scattered Clouds,0,2012-12-09 07:23:00
12:56 AM,-0.9,-4.0,87,30.43,-9999.0,Calm,Calm,-,N/A,,Clear,0,2012-12-09 07:56:00
1:56 AM,-4.0,-6.0,91,30.43,-9999.0,West,3.5,-,N/A,,Clear,260,2012-12-09 08:56:00
2:56 AM,-2.9,-7.1,82,30.43,-9999.0,WSW,4.6,-,N/A,,Clear,240,2012-12-09 09:56:00
3:56 AM,-2.9,-7.1,82,30.43,-9999.0,SW,5.8,-,N/A,,Clear,230,2012-12-09 10:56:00
4:56 AM,-7.1,-11.0,83,30.45,-9999.0,Calm,Calm,-,N/A,,Clear,0,2012-12-09 11:56:00
5:56 AM,-6.0,-9.0,87,30.45,-9999.0,Calm,Calm,-,N/A,,Clear,0,2012-12-09 12:56:00
6:56 AM,-7.1,-9.9,87,30.45,-9999.0,Calm,Calm,-,N/A,,Clear,0,2012-12-09 13:56:00
7:56 AM,-6.0,-8.0,91,30.43,-9999.0,Calm,Calm,-,N/A,,Clear,0,2012-12-09 14:56:00
8:56 AM,-6.0,-9.0,87,30.40,-9999.0,Calm,Calm,-,N/A,,Clear,0,2012-12-09 15:56:00
9:56 AM,-0.0,-2.9,88,30.34,-9999.0,SE,6.9,-,N/A,,Clear,140,2012-12-09 16:56:00
10:56 AM,7.0,3.0,84,30.31,-9999.0,SSW,4.6,-,N/A,,Clear,200,2012-12-09 17:56:00
11:56 AM,19.9,12.0,71,30.22,-9999.0,SW,24.2,29.9,N/A,,Clear,230,2012-12-09 18:56:00
12:56 PM,23.0,10.9,60,30.15,-9999.0,WSW,32.2,42.6,N/A,,Mostly Cloudy,240,2012-12-09 19:56:00
1:56 PM,23.0,12.0,63,30.11,-9999.0,WSW,32.2,35.7,N/A,,Mostly Cloudy,240,2012-12-09 20:56:00
2:56 PM,21.9,12.0,66,30.05,-9999.0,WSW,29.9,41.4,N/A,,Mostly Cloudy,250,2012-12-09 21:56:00
3:56 PM,21.9,10.9,63,30.03,-9999.0,WSW,32.2,40.3,N/A,,Clear,250,2012-12-09 22:56:00
4:56 PM,21.9,12.0,66,30.01,-9999.0,WSW,38.0,49.5,N/A,,Clear,250,2012-12-09 23:56:00
5:56 PM,21.9,12.9,68,29.99,-9999.0,West,29.9,36.8,N/A,,Clear,260,2012-12-10 00:56:00
6:56 PM,23.0,12.2,63,29.78,-9999.0,West,32.2,42.6,N/A,,Clear,260,2012-12-10 01:56:00
7:56 PM,24.1,12.9,62,30.00,-9999.0,West,29.9,40.3,N/A,,Clear,270,2012-12-10 02:56:00
8:56 PM,25.0,12.9,60,29.98,-9999.0,West,33.4,43.7,N/A,,Clear,260,2012-12-10 03:56:00
9:56 PM,27.0,15.1,61,29.92,-9999.0,West,40.3,49.5,N/A,,Mostly Cloudy,270,2012-12-10 04:56:00
10:56 PM,25.0,15.1,66,29.91,-9999.0,West,32.2,41.4,N/A,,Clear,260,2012-12-10 05:56:00
11:56 PM,25.0,15.1,66,29.88,-9999.0,West,28.8,36.8,N/A,,Clear,270,2012-12-10 06:56:00